Total_Precipitation_Accumulation
0.02 0.05 0.21 0.28 0.23 0.22 0.21 0.21 0.21 0.19 0.21 0.24 0.22 0.20 0.20 0.20 0.21 0.21 0.22 0.21 0.21 0.24 0.27 0.30 0.33 0.32 0.30 0.27 0.24 0.24 0.25 0.24 0.23 0.22 0.23 0.25 0.24 0.21 0.19 0.18 0.17 0.18 0.29
0.04 0.06 0.17 0.20 0.19 0.21 0.22 0.22 0.18 0.15 0.17 0.19 0.17 0.14 0.15 0.16 0.18 0.20 0.22 0.24 0.25 0.26 0.25 0.25 0.27 0.27 0.25 0.24 0.23 0.22 0.21 0.19 0.16 0.14 0.12 0.13 0.20 0.22 0.22 0.21 0.19 0.22 0.26
0.03 0.05 0.12 0.15 0.16 0.20 0.21 0.18 0.14 0.11 0.13 0.13 0.12 0.11 0.12 0.13 0.15 0.17 0.19 0.22 0.26 0.28 0.26 0.24 0.25 0.27 0.25 0.23 0.24 0.22 0.21 0.15 0.11 0.11 0.09 0.11 0.19 0.27 0.25 0.24 0.21 0.25 0.26
0.01 0.03 0.07 0.13 0.16 0.18 0.18 0.16 0.12 0.11 0.11 0.11 0.10 0.09 0.10 0.11 0.12 0.13 0.14 0.18 0.24 0.29 0.33 0.32 0.31 0.30 0.26 0.24 0.24 0.22 0.26 0.17 0.09 0.08 0.05 0.09 0.22 0.35 0.33 0.30 0.25 0.26 0.28
0.01 0.02 0.06 0.13 0.16 0.18 0.18 0.15 0.12 0.11 0.12 0.11 0.10 0.09 0.10 0.10 0.10 0.10 0.10 0.12 0.18 0.26 0.32 0.35 0.33 0.30 0.29 0.27 0.24 0.23 0.30 0.24 0.11 0.05 0.03 0.08 0.19 0.37 0.34 0.33 0.29 0.28 0.28
0.01 0.02 0.07 0.13 0.16 0.18 0.18 0.15 0.13 0.12 0.12 0.12 0.11 0.11 0.13 0.13 0.11 0.09 0.08 0.07 0.09 0.16 0.24 0.28 0.29 0.30 0.32 0.27 0.22 0.27 0.37 0.33 0.13 0.03 0.06 0.09 0.15 0.38 0.43 0.37 0.33 0.30 0.29
0.01 0.02 0.07 0.14 0.17 0.18 0.18 0.15 0.14 0.13 0.13 0.12 0.12 0.13 0.15 0.14 0.12 0.11 0.10 0.08 0.06 0.07 0.13 0.19 0.24 0.28 0.32 0.29 0.27 0.36 0.46 0.34 0.10 0.06 0.07 0.10 0.17 0.47 0.64 0.54 0.39 0.32 0.31
0.01 0.02 0.07 0.14 0.17 0.18 0.18 0.17 0.16 0.16 0.16 0.15 0.14 0.15 0.13 0.13 0.13 0.14 0.13 0.11 0.08 0.07 0.08 0.10 0.16 0.22 0.27 0.29 0.30 0.36 0.40 0.23 0.07 0.06 0.08 0.09 0.20 0.55 0.72 0.69 0.53 0.40 0.35
0.01 0.02 0.06 0.11 0.14 0.17 0.17 0.16 0.15 0.16 0.16 0.15 0.14 0.13 0.11 0.10 0.12 0.16 0.16 0.13 0.12 0.11 0.10 0.08 0.08 0.12 0.16 0.20 0.25 0.28 0.26 0.16 0.07 0.12 0.10 0.12 0.22 0.58 0.75 0.77 0.69 0.53 0.40
0.02 0.03 0.05 0.08 0.09 0.12 0.14 0.15 0.15 0.15 0.15 0.15 0.13 0.11 0.09 0.09 0.11 0.14 0.14 0.11 0.12 0.13 0.13 0.11 0.09 0.08 0.08 0.10 0.13 0.15 0.12 0.08 0.05 0.12 0.21 0.19 0.20 0.52 0.75 0.78 0.71 0.64 0.52
0.04 0.04 0.05 0.07 0.08 0.10 0.11 0.12 0.14 0.16 0.15 0.14 0.12 0.10 0.09 0.07 0.06 0.06 0.06 0.07 0.10 0.12 0.11 0.12 0.12 0.10 0.07 0.04 0.04 0.05 0.04 0.02 0.06 0.16 0.22 0.23 0.33 0.65 0.85 0.82 0.80 0.72 0.64
0.03 0.04 0.05 0.06 0.07 0.09 0.09 0.10 0.12 0.12 0.12 0.09 0.09 0.09 0.08 0.07 0.05 0.06 0.05 0.06 0.10 0.11 0.10 0.11 0.12 0.11 0.08 0.06 0.08 0.08 0.03 0.01 0.03 0.06 0.11 0.16 0.36 0.73 0.95 0.95 0.96 0.87 0.76
0.02 0.03 0.04 0.05 0.06 0.07 0.07 0.08 0.10 0.10 0.11 0.11 0.10 0.11 0.10 0.11 0.11 0.11 0.11 0.13 0.13 0.13 0.13 0.15 0.17 0.17 0.19 0.21 0.23 0.20 0.13 0.09 0.05 0.03 0.03 0.07 0.20 0.48 0.80 0.96 1.01 1.01 0.95
0.02 0.02 0.03 0.04 0.06 0.06 0.05 0.05 0.05 0.06 0.08 0.10 0.10 0.13 0.15 0.19 0.20 0.22 0.22 0.26 0.27 0.26 0.24 0.23 0.20 0.20 0.21 0.22 0.24 0.24 0.23 0.22 0.14 0.09 0.05 0.06 0.08 0.15 0.37 0.64 0.88 1.00 1.08
0.03 0.03 0.03 0.04 0.05 0.06 0.05 0.04 0.04 0.04 0.05 0.08 0.08 0.10 0.11 0.11 0.11 0.11 0.12 0.12 0.12 0.14 0.14 0.16 0.17 0.16 0.16 0.16 0.17 0.18 0.21 0.23 0.21 0.17 0.14 0.13 0.09 0.09 0.15 0.31 0.56 0.82 1.03
0.04 0.03 0.04 0.04 0.05 0.05 0.04 0.04 0.03 0.03 0.04 0.04 0.04 0.04 0.04 0.04 0.04 0.03 0.03 0.03 0.02 0.02 0.02 0.03 0.04 0.05 0.06 0.08 0.09 0.11 0.13 0.16 0.18 0.19 0.19 0.21 0.16 0.13 0.14 0.21 0.35 0.58 0.88
0.04 0.04 0.05 0.05 0.06 0.05 0.04 0.04 0.04 0.03 0.03 0.03 0.03 0.02 0.01 0.01 0.02 0.02 0.02 0.01 0.01 0.00 0.00 0.00 0.01 0.01 0.01 0.02 0.03 0.05 0.07 0.08 0.12 0.15 0.18 0.22 0.23 0.20 0.17 0.21 0.27 0.43 0.72
0.05 0.05 0.06 0.06 0.07 0.07 0.05 0.04 0.04 0.03 0.03 0.03 0.02 0.02 0.01 0.01 0.01 0.01 0.01 0.01 0.01 0.01 0.01 0.01 0.01 0.01 0.01 0.02 0.02 0.03 0.06 0.07 0.06 0.09 0.14 0.16 0.19 0.21 0.20 0.20 0.28 0.42 0.60
0.05 0.06 0.07 0.07 0.07 0.07 0.08 0.06 0.05 0.04 0.03 0.03 0.02 0.02 0.02 0.01 0.01 0.01 0.02 0.01 0.01 0.02 0.02 0.03 0.03 0.02 0.02 0.02 0.02 0.02 0.02 0.04 0.05 0.08 0.11 0.14 0.17 0.18 0.20 0.21 0.25 0.34 0.48
0.05 0.06 0.08 0.09 0.08 0.09 0.10 0.10 0.08 0.06 0.04 0.03 0.02 0.02 0.02 0.01 0.01 0.01 0.02 0.01 0.01 0.01 0.02 0.02 0.02 0.02 0.02 0.02 0.02 0.01 0.00 0.01 0.02 0.05 0.07 0.12 0.16 0.17 0.19 0.24 0.27 0.25 0.27
0.07 0.07 0.07 0.09 0.10 0.11 0.10 0.10 0.09 0.07 0.04 0.03 0.02 0.01 0.01 0.01 0.01 0.01 0.01 0.01 0.01 0.01 0.02 0.02 0.02 0.03 0.02 0.02 0.02 0.01 0.00 0.00 0.01 0.02 0.07 0.12 0.17 0.23 0.29 0.34 0.40 0.38 0.30
0.07 0.07 0.06 0.07 0.08 0.08 0.07 0.05 0.05 0.05 0.04 0.03 0.02 0.01 0.01 0.01 0.01 0.01 0.01 0.01 0.01 0.01 0.01 0.01 0.02 0.05 0.04 0.03 0.07 0.11 0.05 0.01 0.00 0.01 0.04 0.09 0.17 0.27 0.39 0.44 0.49 0.50 0.46
0.06 0.06 0.05 0.06 0.06 0.07 0.07 0.07 0.07 0.08 0.08 0.06 0.03 0.02 0.01 0.01 0.01 0.00 0.01 0.01 0.01 0.01 0.01 0.01 0.02 0.04 0.06 0.04 0.07 0.24 0.32 0.16 0.05 0.00 0.01 0.04 0.08 0.12 0.20 0.29 0.36 0.41 0.47
0.03 0.05 0.06 0.06 0.05 0.06 0.08 0.07 0.06 0.06 0.05 0.04 0.02 0.01 0.01 0.01 0.01 0.01 0.01 0.01 0.01 0.01 0.02 0.02 0.03 0.05 0.11 0.12 0.08 0.12 0.22 0.27 0.29 0.13 0.01 0.02 0.02 0.04 0.06 0.10 0.16 0.23 0.34
0.02 0.03 0.05 0.07 0.07 0.07 0.07 0.07 0.05 0.05 0.03 0.02 0.03 0.02 0.01 0.01 0.01 0.01 0.01 0.01 0.01 0.01 0.02 0.03 0.04 0.06 0.12 0.17 0.17 0.15 0.14 0.13 0.19 0.28 0.12 0.02 0.03 0.03 0.03 0.05 0.07 0.10 0.16
0.03 0.04 0.04 0.06 0.06 0.06 0.07 0.06 0.05 0.05 0.04 0.03 0.02 0.02 0.02 0.01 0.01 0.01 0.01 0.01 0.01 0.02 0.03 0.05 0.07 0.09 0.11 0.15 0.18 0.20 0.24 0.26 0.20 0.26 0.22 0.07 0.03 0.03 0.04 0.05 0.06 0.07 0.10